Year,Month,Day,Hour,Minute,Value (Times are PST for temperature in C)
2015,08,03,00,00,17.00
2015,08,03,00,01,17.00
2015,08,03,00,02,17.00
2015,08,03,00,03,17.00
2015,08,03,00,04,17.00
2015,08,03,00,05,17.00
2015,08,03,00,06,16.90
2015,08,03,00,07,16.90
2015,08,03,00,08,16.80
2015,08,03,00,09,16.80
2015,08,03,00,10,16.80
2015,08,03,00,11,16.70
2015,08,03,00,12,16.70
2015,08,03,00,13,16.70
2015,08,03,00,14,16.60
2015,08,03,00,15,16.60
2015,08,03,00,16,16.50
2015,08,03,00,17,16.50
2015,08,03,00,18,16.40
2015,08,03,00,19,16.40
2015,08,03,00,20,16.30
2015,08,03,00,21,16.30
2015,08,03,00,22,16.30
2015,08,03,00,23,16.20
2015,08,03,00,24,16.20
2015,08,03,00,25,16.10
2015,08,03,00,26,16.10
2015,08,03,00,27,16.10
2015,08,03,00,28,16.00
2015,08,03,00,29,16.00
2015,08,03,00,30,16.00
2015,08,03,00,31,15.90
2015,08,03,00,32,15.90
2015,08,03,00,33,15.90
2015,08,03,00,34,15.90
2015,08,03,00,35,15.80
2015,08,03,00,36,15.80
2015,08,03,00,37,15.80
2015,08,03,00,38,15.80
2015,08,03,00,39,15.80
2015,08,03,00,40,15.70
2015,08,03,00,41,15.70
2015,08,03,00,42,15.70
2015,08,03,00,43,15.70
2015,08,03,00,44,15.70
2015,08,03,00,45,15.70
2015,08,03,00,46,15.70
2015,08,03,00,47,15.70
2015,08,03,00,48,15.70
2015,08,03,00,49,15.70
2015,08,03,00,50,15.70
2015,08,03,00,51,15.70
2015,08,03,00,52,15.70
2015,08,03,00,53,15.80
2015,08,03,00,54,15.80
2015,08,03,00,55,15.80
2015,08,03,00,56,15.90
2015,08,03,00,57,15.90
2015,08,03,00,58,15.90
2015,08,03,00,59,15.90
2015,08,03,01,00,15.90
2015,08,03,01,01,15.90
2015,08,03,01,02,15.90
2015,08,03,01,03,15.80
2015,08,03,01,04,15.80
2015,08,03,01,05,15.80
2015,08,03,01,06,15.80
2015,08,03,01,07,15.80
2015,08,03,01,08,15.70
2015,08,03,01,09,15.70
2015,08,03,01,10,15.70
2015,08,03,01,11,15.70
2015,08,03,01,12,15.70
2015,08,03,01,13,15.70
2015,08,03,01,14,15.70
2015,08,03,01,15,15.80
2015,08,03,01,16,15.80
2015,08,03,01,17,15.80
2015,08,03,01,18,15.80
2015,08,03,01,19,15.90
2015,08,03,01,20,15.90
2015,08,03,01,21,16.00
2015,08,03,01,22,16.00
2015,08,03,01,23,16.10
2015,08,03,01,24,16.10
2015,08,03,01,25,16.10
2015,08,03,01,26,16.10
2015,08,03,01,27,16.10
2015,08,03,01,28,16.00
2015,08,03,01,29,16.00
2015,08,03,01,30,15.90
2015,08,03,01,31,15.90
2015,08,03,01,32,15.90
2015,08,03,01,33,15.90
2015,08,03,01,34,15.90
2015,08,03,01,35,15.90
2015,08,03,01,36,15.80
2015,08,03,01,37,15.80
2015,08,03,01,38,15.80
2015,08,03,01,39,15.80
2015,08,03,01,40,15.80
2015,08,03,01,41,15.80
2015,08,03,01,42,15.80
2015,08,03,01,43,15.80
2015,08,03,01,44,15.80
2015,08,03,01,45,15.80
2015,08,03,01,46,15.80
2015,08,03,01,47,15.80
2015,08,03,01,48,15.80
2015,08,03,01,49,15.80
2015,08,03,01,50,15.90
2015,08,03,01,51,15.90
2015,08,03,01,52,15.90
2015,08,03,01,53,15.90
2015,08,03,01,54,16.00
2015,08,03,01,55,16.00
2015,08,03,01,56,15.90
2015,08,03,01,57,15.90
2015,08,03,01,58,15.90
2015,08,03,01,59,15.90
2015,08,03,02,00,15.90
2015,08,03,02,01,15.80
2015,08,03,02,02,15.80
2015,08,03,02,03,15.80
2015,08,03,02,04,15.70
2015,08,03,02,05,15.70
2015,08,03,02,06,15.70
2015,08,03,02,07,15.60
2015,08,03,02,08,15.50
2015,08,03,02,09,15.50
2015,08,03,02,10,15.40
2015,08,03,02,11,15.40
2015,08,03,02,12,15.30
2015,08,03,02,13,15.30
2015,08,03,02,14,15.30
2015,08,03,02,15,15.30
2015,08,03,02,16,15.30
2015,08,03,02,17,15.30
2015,08,03,02,18,15.20
2015,08,03,02,19,15.20
2015,08,03,02,20,15.20
2015,08,03,02,21,15.20
2015,08,03,02,22,15.10
2015,08,03,02,23,15.10
2015,08,03,02,24,15.10
2015,08,03,02,25,15.10
2015,08,03,02,26,15.10
2015,08,03,02,27,15.10
2015,08,03,02,28,15.10
2015,08,03,02,29,15.10
2015,08,03,02,30,15.10
2015,08,03,02,31,15.10
2015,08,03,02,32,15.10
2015,08,03,02,33,15.10
2015,08,03,02,34,15.10
2015,08,03,02,35,15.10
2015,08,03,02,36,15.10
2015,08,03,02,37,15.10
2015,08,03,02,38,15.10
2015,08,03,02,39,15.10
2015,08,03,02,40,15.10
2015,08,03,02,41,15.10
2015,08,03,02,42,15.10
2015,08,03,02,43,15.10
2015,08,03,02,44,15.00
2015,08,03,02,45,15.00
2015,08,03,02,46,15.00
2015,08,03,02,47,15.00
2015,08,03,02,48,15.00
2015,08,03,02,49,15.00
2015,08,03,02,50,15.00
2015,08,03,02,51,15.00
2015,08,03,02,52,15.00
2015,08,03,02,53,15.00
2015,08,03,02,54,15.00
2015,08,03,02,55,15.00
2015,08,03,02,56,14.90
2015,08,03,02,57,14.90
2015,08,03,02,58,14.90
2015,08,03,02,59,14.90
2015,08,03,03,00,14.80
2015,08,03,03,01,14.80
2015,08,03,03,02,14.80
2015,08,03,03,03,14.80
2015,08,03,03,06,14.70
2015,08,03,03,07,14.70
2015,08,03,03,08,14.70
2015,08,03,03,09,14.70
2015,08,03,03,10,14.70
2015,08,03,03,11,14.70
2015,08,03,03,12,14.70
2015,08,03,03,13,14.70
2015,08,03,03,14,14.70
2015,08,03,03,15,14.70
2015,08,03,03,16,14.70
2015,08,03,03,17,14.70
2015,08,03,03,18,14.70
2015,08,03,03,19,14.70
2015,08,03,03,20,14.70
2015,08,03,03,21,14.70
2015,08,03,03,22,14.70
2015,08,03,03,23,14.70
2015,08,03,03,24,14.70
2015,08,03,03,25,14.70
2015,08,03,03,26,14.60
2015,08,03,03,27,14.70
2015,08,03,03,28,14.70
2015,08,03,03,29,14.70
2015,08,03,03,30,14.80
2015,08,03,03,31,14.90
2015,08,03,03,32,15.00
2015,08,03,03,33,15.00
2015,08,03,03,34,15.00
2015,08,03,03,35,15.00
2015,08,03,03,36,15.00
2015,08,03,03,37,14.90
2015,08,03,03,38,14.90
2015,08,03,03,39,14.90
2015,08,03,03,40,14.80
2015,08,03,03,41,14.80
2015,08,03,03,42,14.80
2015,08,03,03,43,14.70
2015,08,03,03,44,14.70
2015,08,03,03,45,14.70
2015,08,03,03,46,14.60
2015,08,03,03,47,14.60
2015,08,03,03,48,14.50
2015,08,03,03,49,14.50
2015,08,03,03,50,14.50
2015,08,03,03,51,14.40
2015,08,03,03,52,14.40
2015,08,03,03,53,14.30
2015,08,03,03,54,14.30
2015,08,03,03,55,14.30
2015,08,03,03,56,14.30
2015,08,03,03,57,14.30
2015,08,03,03,58,14.20
2015,08,03,03,59,14.20
2015,08,03,04,00,14.20
2015,08,03,04,01,14.20
2015,08,03,04,02,14.20
2015,08,03,04,03,14.20
2015,08,03,04,04,14.10
2015,08,03,04,05,14.20
2015,08,03,04,06,14.20
2015,08,03,04,07,14.20
2015,08,03,04,08,14.20
2015,08,03,04,09,14.20
2015,08,03,04,10,14.20
2015,08,03,04,11,14.10
2015,08,03,04,12,14.10
2015,08,03,04,13,14.10
2015,08,03,04,14,14.10
2015,08,03,04,15,14.10
2015,08,03,04,16,14.10
2015,08,03,04,17,14.10
2015,08,03,04,18,14.10
2015,08,03,04,19,14.10
2015,08,03,04,20,14.10
2015,08,03,04,21,14.10
2015,08,03,07,10,14.50
2015,08,03,07,11,14.50
2015,08,03,07,12,14.60
2015,08,03,07,13,14.60
2015,08,03,07,14,14.70
2015,08,03,07,15,14.70
2015,08,03,07,16,14.80
2015,08,03,07,17,14.80
2015,08,03,07,18,14.90
2015,08,03,07,19,14.90
2015,08,03,07,20,15.00
2015,08,03,07,21,15.00
2015,08,03,07,22,15.10
2015,08,03,07,23,15.20
2015,08,03,07,24,15.30
2015,08,03,07,25,15.40
2015,08,03,07,26,15.50
2015,08,03,07,27,15.60
2015,08,03,07,28,15.70
2015,08,03,07,29,15.80
2015,08,03,07,30,15.90
2015,08,03,07,31,16.00
2015,08,03,07,32,16.10
2015,08,03,07,33,16.20
2015,08,03,07,34,16.30
2015,08,03,07,35,16.40
2015,08,03,07,36,16.50
2015,08,03,07,37,16.60
2015,08,03,07,38,16.70
2015,08,03,07,39,16.70
2015,08,03,07,40,16.90
2015,08,03,07,41,17.00
2015,08,03,07,42,17.10
2015,08,03,07,43,17.20
2015,08,03,07,44,17.30
2015,08,03,07,45,17.40
2015,08,03,07,46,17.40
2015,08,03,07,47,17.50
2015,08,03,07,48,17.60
2015,08,03,07,49,17.60
2015,08,03,07,50,17.70
2015,08,03,07,51,17.80
2015,08,03,07,52,17.80
2015,08,03,07,53,17.90
2015,08,03,07,54,18.00
2015,08,03,07,55,18.00
2015,08,03,07,56,18.10
2015,08,03,07,57,18.20
2015,08,03,07,58,18.20
2015,08,03,07,59,18.30
2015,08,03,08,00,18.40
2015,08,03,08,01,18.60
2015,08,03,08,02,18.70
2015,08,03,08,03,18.90
2015,08,03,08,04,19.00
2015,08,03,08,05,19.20
2015,08,03,08,06,19.20
2015,08,03,08,07,19.40
2015,08,03,08,08,19.50
2015,08,03,08,09,19.50
2015,08,03,08,10,19.60
2015,08,03,08,11,19.70
2015,08,03,08,12,19.70
2015,08,03,08,13,19.70
2015,08,03,08,14,19.70
2015,08,03,08,15,19.80
2015,08,03,08,16,19.80
2015,08,03,08,17,19.80
2015,08,03,08,18,19.90
2015,08,03,08,19,19.90
2015,08,03,08,20,20.00
2015,08,03,08,21,20.00
2015,08,03,08,22,20.00
2015,08,03,08,23,20.00
2015,08,03,08,24,20.10
2015,08,03,08,25,20.10
2015,08,03,08,26,20.10
2015,08,03,08,27,20.20
2015,08,03,08,28,20.20
2015,08,03,08,29,20.20
2015,08,03,08,30,20.30
2015,08,03,08,31,20.40
2015,08,03,08,32,20.50
2015,08,03,08,33,20.60
2015,08,03,08,34,20.70
2015,08,03,08,35,20.70
2015,08,03,08,36,20.80
2015,08,03,08,37,20.80
2015,08,03,08,38,20.80
2015,08,03,08,39,20.80
2015,08,03,08,40,20.90
2015,08,03,08,41,20.90
2015,08,03,08,42,21.00
2015,08,03,08,43,21.00
2015,08,03,08,44,21.10
2015,08,03,08,45,21.10
2015,08,03,08,46,21.10
2015,08,03,08,47,21.10
2015,08,03,08,48,21.10
2015,08,03,08,49,21.10
2015,08,03,08,50,21.10
2015,08,03,08,51,21.20
2015,08,03,08,52,21.20
2015,08,03,08,53,21.30
2015,08,03,08,54,21.40
2015,08,03,08,55,21.40
2015,08,03,08,56,21.30
2015,08,03,08,57,21.20
2015,08,03,08,58,21.20
2015,08,03,08,59,21.20
2015,08,03,09,00,21.20
2015,08,03,09,01,21.20
2015,08,03,09,02,21.20
2015,08,03,09,03,21.20
2015,08,03,09,04,21.30
2015,08,03,09,05,21.30
2015,08,03,09,06,21.40
2015,08,03,09,07,21.40
2015,08,03,09,08,21.40
2015,08,03,09,09,21.40
2015,08,03,09,10,21.40
2015,08,03,09,11,21.30
2015,08,03,09,12,21.30
2015,08,03,09,13,21.20
2015,08,03,09,14,21.20
2015,08,03,09,15,21.30
2015,08,03,09,16,21.30
2015,08,03,09,17,21.30
2015,08,03,09,18,21.30
2015,08,03,09,19,21.30
2015,08,03,09,20,21.30
2015,08,03,09,21,21.40
2015,08,03,09,22,21.40
2015,08,03,09,23,21.40
2015,08,03,09,24,21.40
2015,08,03,09,25,21.60
2015,08,03,09,26,21.70
2015,08,03,09,27,21.70
2015,08,03,09,28,21.60
2015,08,03,09,29,21.60
2015,08,03,09,30,21.50
2015,08,03,09,31,21.40
2015,08,03,09,32,21.30
2015,08,03,09,33,21.40
2015,08,03,09,34,21.40
2015,08,03,09,35,21.40
2015,08,03,09,36,21.40
2015,08,03,09,37,21.50
2015,08,03,09,38,21.50
2015,08,03,09,39,21.60
2015,08,03,09,40,21.70
2015,08,03,09,41,21.70
2015,08,03,09,42,21.80
2015,08,03,09,43,21.90
2015,08,03,09,44,21.90
2015,08,03,09,45,22.00
2015,08,03,09,46,21.90
2015,08,03,09,47,21.80
2015,08,03,09,48,21.70
2015,08,03,09,49,21.60
2015,08,03,09,50,21.50
2015,08,03,09,51,21.40
2015,08,03,09,52,21.40
2015,08,03,09,53,21.40
2015,08,03,09,54,21.40
2015,08,03,09,55,21.40
2015,08,03,09,56,21.20
2015,08,03,09,57,21.10
2015,08,03,09,58,20.90
2015,08,03,09,59,20.80
2015,08,03,10,00,20.80
2015,08,03,10,01,20.80
2015,08,03,10,02,20.80
2015,08,03,10,03,20.90
2015,08,03,10,04,20.90
2015,08,03,10,05,20.90
2015,08,03,10,06,21.00
2015,08,03,10,07,21.00
2015,08,03,10,08,21.10
2015,08,03,10,09,21.20
2015,08,03,10,10,21.20
2015,08,03,10,11,21.20
2015,08,03,10,12,21.20
2015,08,03,10,13,21.30
2015,08,03,10,14,21.30
2015,08,03,10,15,21.40
2015,08,03,10,16,21.40
2015,08,03,10,17,21.40
2015,08,03,10,18,21.40
2015,08,03,10,19,21.40
2015,08,03,10,20,21.30
2015,08,03,10,21,21.30
2015,08,03,10,22,21.30
2015,08,03,10,23,21.30
2015,08,03,10,24,21.30
2015,08,03,10,25,21.50
2015,08,03,10,26,21.60
2015,08,03,10,27,21.50
2015,08,03,10,28,21.40
2015,08,03,10,29,21.40
2015,08,03,10,30,21.30
2015,08,03,10,31,21.30
2015,08,03,10,32,21.40
2015,08,03,10,33,21.50
2015,08,03,10,34,21.60
2015,08,03,10,35,21.70
2015,08,03,10,36,21.80
2015,08,03,10,37,21.80
2015,08,03,10,38,21.90
2015,08,03,10,39,21.90
2015,08,03,10,40,21.90
2015,08,03,10,41,21.90
2015,08,03,10,42,22.00
2015,08,03,10,43,21.80
2015,08,03,10,44,21.80
2015,08,03,10,45,21.70
2015,08,03,10,46,21.70
2015,08,03,10,47,21.80
2015,08,03,10,48,22.00
2015,08,03,10,49,22.30
2015,08,03,10,50,22.40
2015,08,03,10,51,22.40
2015,08,03,10,52,22.40
2015,08,03,10,53,22.50
2015,08,03,10,54,22.50
2015,08,03,10,55,22.60
2015,08,03,10,56,22.60
2015,08,03,10,57,22.70
2015,08,03,10,58,22.70
2015,08,03,10,59,22.60
2015,08,03,11,00,22.60
2015,08,03,11,01,22.60
2015,08,03,11,02,22.60
2015,08,03,11,03,22.60
2015,08,03,11,04,22.60
2015,08,03,11,05,22.60
2015,08,03,11,06,22.60
2015,08,03,11,07,22.60
2015,08,03,11,08,22.70
2015,08,03,11,09,22.60
2015,08,03,11,10,22.60
2015,08,03,11,11,22.60
2015,08,03,11,12,22.60
2015,08,03,11,13,22.60
2015,08,03,11,14,22.80
2015,08,03,11,15,23.00
2015,08,03,11,16,23.10
2015,08,03,11,17,23.20
2015,08,03,11,18,23.10
2015,08,03,11,19,22.90
2015,08,03,11,20,22.70
2015,08,03,11,21,22.60
2015,08,03,11,22,22.80
2015,08,03,11,23,23.00
2015,08,03,11,24,23.10
2015,08,03,11,25,23.10
2015,08,03,11,26,23.20
2015,08,03,11,27,23.30
2015,08,03,11,28,23.30
2015,08,03,11,29,23.30
2015,08,03,11,30,23.30
2015,08,03,11,31,23.30
2015,08,03,11,32,23.30
2015,08,03,11,33,23.20
2015,08,03,11,34,23.20
2015,08,03,11,35,23.20
2015,08,03,11,36,23.30
2015,08,03,11,37,23.40
2015,08,03,11,38,23.50
2015,08,03,11,39,23.60
2015,08,03,11,40,23.50
2015,08,03,11,41,23.40
2015,08,03,11,42,23.30
2015,08,03,11,43,23.30
2015,08,03,11,44,23.30
2015,08,03,11,45,23.50
2015,08,03,11,46,23.70
2015,08,03,11,47,23.70
2015,08,03,11,48,23.60
2015,08,03,11,49,23.60
2015,08,03,11,50,23.60
2015,08,03,11,51,23.60
2015,08,03,11,52,23.60
2015,08,03,11,53,23.50
2015,08,03,11,54,23.50
2015,08,03,11,55,23.50
2015,08,03,11,56,23.50
2015,08,03,11,57,23.50
2015,08,03,11,58,23.60
2015,08,03,11,59,23.60
2015,08,03,12,00,23.60
2015,08,03,12,01,23.40
2015,08,03,12,02,23.30
2015,08,03,12,03,23.20
2015,08,03,12,04,23.20
2015,08,03,12,05,23.20
2015,08,03,12,06,23.20
2015,08,03,12,07,23.10
2015,08,03,12,08,23.00
2015,08,03,12,09,22.90
2015,08,03,12,10,22.70
2015,08,03,12,11,22.70
2015,08,03,12,12,22.80
2015,08,03,12,13,22.90
2015,08,03,12,14,23.10
2015,08,03,12,15,23.20
2015,08,03,12,16,23.40
2015,08,03,12,17,23.40
2015,08,03,12,18,23.50
2015,08,03,12,19,23.60
2015,08,03,12,20,23.70
2015,08,03,12,21,23.90
2015,08,03,12,22,24.00
2015,08,03,12,23,24.00
2015,08,03,12,24,24.00
2015,08,03,12,25,24.10
2015,08,03,12,26,24.10
2015,08,03,12,27,24.00
2015,08,03,12,28,23.90
2015,08,03,12,29,23.60
2015,08,03,12,30,23.40
2015,08,03,12,31,23.20
2015,08,03,12,32,23.10
2015,08,03,12,33,23.10
2015,08,03,12,34,23.20
2015,08,03,12,35,23.20
2015,08,03,12,36,23.30
2015,08,03,12,37,23.30
2015,08,03,12,38,23.40
2015,08,03,12,39,23.40
2015,08,03,12,40,23.40
2015,08,03,12,41,23.30
2015,08,03,12,42,23.30
2015,08,03,12,43,23.40
2015,08,03,12,44,23.50
2015,08,03,12,45,23.50
2015,08,03,12,46,23.60
2015,08,03,12,47,23.60
2015,08,03,12,48,23.60
2015,08,03,12,49,23.70
2015,08,03,12,50,23.70
2015,08,03,12,51,23.70
2015,08,03,12,52,23.80
2015,08,03,12,53,23.70
2015,08,03,12,54,23.60
2015,08,03,12,55,23.50
2015,08,03,12,56,23.60
2015,08,03,12,57,23.70
2015,08,03,12,58,23.80
2015,08,03,12,59,23.90
2015,08,03,13,00,23.90
2015,08,03,13,01,23.80
2015,08,03,13,02,23.70
2015,08,03,13,03,23.60
2015,08,03,13,04,23.60
2015,08,03,13,05,23.50
2015,08,03,13,06,23.40
2015,08,03,13,07,23.40
2015,08,03,13,08,23.40
2015,08,03,13,09,23.40
2015,08,03,13,10,23.50
2015,08,03,13,11,23.60
2015,08,03,13,12,23.60
2015,08,03,13,13,23.60
2015,08,03,13,14,23.60
2015,08,03,13,15,23.60
2015,08,03,13,16,23.50
2015,08,03,13,17,23.50
2015,08,03,13,18,23.40
2015,08,03,13,19,23.50
2015,08,03,13,20,23.60
2015,08,03,13,21,23.80
2015,08,03,13,22,23.80
2015,08,03,13,23,23.80
2015,08,03,13,24,23.80
2015,08,03,13,25,23.70
2015,08,03,13,26,23.70
2015,08,03,13,27,23.70
2015,08,03,13,28,23.60
2015,08,03,13,29,23.60
2015,08,03,13,30,23.70
2015,08,03,13,31,23.70
2015,08,03,13,32,23.80
2015,08,03,13,33,23.80
2015,08,03,13,34,23.80
2015,08,03,13,35,23.80
2015,08,03,13,36,23.90
2015,08,03,13,37,23.90
2015,08,03,13,38,24.00
2015,08,03,13,39,23.90
2015,08,03,13,40,23.80
2015,08,03,13,41,23.80
2015,08,03,13,42,23.70
2015,08,03,13,43,23.70
2015,08,03,13,44,23.70
2015,08,03,13,45,23.70
2015,08,03,13,46,23.70
2015,08,03,13,47,23.70
2015,08,03,13,48,23.70
2015,08,03,13,49,23.60
2015,08,03,13,50,23.50
2015,08,03,13,51,23.50
2015,08,03,13,52,23.60
2015,08,03,13,53,23.80
2015,08,03,13,54,23.80
2015,08,03,13,55,23.90
2015,08,03,13,56,24.00
2015,08,03,13,57,24.00
2015,08,03,13,58,24.00
2015,08,03,13,59,24.00
2015,08,03,14,00,24.10
2015,08,03,14,01,24.20
2015,08,03,14,02,24.10
2015,08,03,14,03,24.00
2015,08,03,14,04,24.00
2015,08,03,14,05,23.90
2015,08,03,14,06,23.90
2015,08,03,14,07,24.00
2015,08,03,14,08,23.90
2015,08,03,14,09,23.90
2015,08,03,14,10,23.90
2015,08,03,14,11,23.80
2015,08,03,14,12,23.80
2015,08,03,14,13,23.70
2015,08,03,14,14,23.80
2015,08,03,14,15,23.80
2015,08,03,14,16,23.90
2015,08,03,14,17,24.00
2015,08,03,14,18,24.00
2015,08,03,14,19,23.90
2015,08,03,14,20,23.80
2015,08,03,14,21,23.90
2015,08,03,14,22,24.00
2015,08,03,14,23,24.10
2015,08,03,14,24,24.20
2015,08,03,14,25,24.20
2015,08,03,14,26,24.30
2015,08,03,14,27,24.40
2015,08,03,14,28,24.40
2015,08,03,14,29,24.40
2015,08,03,14,30,24.50
2015,08,03,14,31,24.50
2015,08,03,14,32,24.60
2015,08,03,14,33,24.70
2015,08,03,14,34,24.80
2015,08,03,14,35,24.80
2015,08,03,14,36,24.80
2015,08,03,14,37,24.90
2015,08,03,14,38,24.90
2015,08,03,14,39,24.80
2015,08,03,14,40,24.80
2015,08,03,14,41,24.80
2015,08,03,14,42,24.70
2015,08,03,14,43,24.60
2015,08,03,14,44,24.40
2015,08,03,14,45,24.30
2015,08,03,14,46,24.30
2015,08,03,14,47,24.30
2015,08,03,14,48,24.30
2015,08,03,14,49,24.30
2015,08,03,14,50,24.40
2015,08,03,14,51,24.40
2015,08,03,14,52,24.40
2015,08,03,14,53,24.60
2015,08,03,14,54,24.70
2015,08,03,14,55,24.80
2015,08,03,14,56,24.70
2015,08,03,14,57,24.70
2015,08,03,14,58,24.60
2015,08,03,14,59,24.50
2015,08,03,15,00,24.50
2015,08,03,15,01,24.50
2015,08,03,15,02,24.70
2015,08,03,15,03,24.70
2015,08,03,15,04,24.60
2015,08,03,15,05,24.60
2015,08,03,15,06,24.60
2015,08,03,15,07,24.70
2015,08,03,15,08,24.70
2015,08,03,15,09,24.70
2015,08,03,15,10,24.70
2015,08,03,15,11,24.80
2015,08,03,15,12,24.90
2015,08,03,15,13,25.10
2015,08,03,15,14,25.20
2015,08,03,15,15,25.20
2015,08,03,15,16,25.20
2015,08,03,15,17,25.20
2015,08,03,15,18,25.30
2015,08,03,15,19,25.30
2015,08,03,15,20,25.30
2015,08,03,15,21,25.40
2015,08,03,15,22,25.50
2015,08,03,15,23,25.50
2015,08,03,15,24,25.50
2015,08,03,15,25,25.40
2015,08,03,15,26,25.40
2015,08,03,15,27,25.40
2015,08,03,15,28,25.30
2015,08,03,15,29,25.30
2015,08,03,15,30,25.30
2015,08,03,15,31,25.30
2015,08,03,15,32,25.20
2015,08,03,15,33,25.30
2015,08,03,15,34,25.30
2015,08,03,15,35,25.40
2015,08,03,15,36,25.40
2015,08,03,15,37,25.40
2015,08,03,15,38,25.40
2015,08,03,15,39,25.40
2015,08,03,15,40,25.50
2015,08,03,15,41,25.60
2015,08,03,15,42,25.60
2015,08,03,15,43,25.50
2015,08,03,15,44,25.40
2015,08,03,15,45,25.30
2015,08,03,15,46,25.20
2015,08,03,15,47,25.20
2015,08,03,15,48,25.10
2015,08,03,15,49,25.00
2015,08,03,15,50,25.00
2015,08,03,15,51,25.10
2015,08,03,15,52,25.00
2015,08,03,15,53,25.10
2015,08,03,15,54,25.10
2015,08,03,15,55,25.20
2015,08,03,15,56,25.20
2015,08,03,15,57,25.20
2015,08,03,15,58,25.20
2015,08,03,15,59,25.10
2015,08,03,16,00,25.10
2015,08,03,16,01,25.10
2015,08,03,16,02,25.00
2015,08,03,16,03,24.90
2015,08,03,16,04,24.80
2015,08,03,16,05,24.70
2015,08,03,16,06,24.60
2015,08,03,16,07,24.60
2015,08,03,16,08,24.60
2015,08,03,16,09,24.50
2015,08,03,16,10,24.50
2015,08,03,16,11,24.60
2015,08,03,16,12,24.60
2015,08,03,16,13,24.60
2015,08,03,16,14,24.60
2015,08,03,16,15,24.60
2015,08,03,16,16,24.60
2015,08,03,16,17,24.60
2015,08,03,16,18,24.60
2015,08,03,16,19,24.70
2015,08,03,16,20,24.70
2015,08,03,16,21,24.80
2015,08,03,16,22,24.80
2015,08,03,16,23,24.80
2015,08,03,16,24,24.80
2015,08,03,16,25,24.80
2015,08,03,16,26,24.80
2015,08,03,16,27,24.80
2015,08,03,16,28,24.80
2015,08,03,16,29,24.80
2015,08,03,16,30,24.80
2015,08,03,16,31,24.90
2015,08,03,16,32,24.90
2015,08,03,16,33,25.00
2015,08,03,16,34,25.00
2015,08,03,16,35,25.00
2015,08,03,16,36,25.10
2015,08,03,16,37,25.20
2015,08,03,16,38,25.10
2015,08,03,16,39,25.00
2015,08,03,16,40,25.00
2015,08,03,16,41,24.90
2015,08,03,16,42,24.80
2015,08,03,16,43,24.70
2015,08,03,16,44,24.60
2015,08,03,16,45,24.60
2015,08,03,16,46,24.60
2015,08,03,16,47,24.60
2015,08,03,16,48,24.60
2015,08,03,16,49,24.50
2015,08,03,16,50,24.50
2015,08,03,16,51,24.50
2015,08,03,16,52,24.60
2015,08,03,16,53,24.70
2015,08,03,16,54,24.70
2015,08,03,16,55,24.80
2015,08,03,16,56,24.90
2015,08,03,16,57,25.00
2015,08,03,16,58,25.10
2015,08,03,16,59,25.10
2015,08,03,17,00,25.00
2015,08,03,17,01,25.00
2015,08,03,17,02,24.90
2015,08,03,17,03,24.90
2015,08,03,17,04,24.90
2015,08,03,17,05,24.90
2015,08,03,17,06,24.90
2015,08,03,17,07,24.90
2015,08,03,17,08,24.90
2015,08,03,17,09,24.90
2015,08,03,17,10,24.90
2015,08,03,17,11,24.80
2015,08,03,17,12,24.80
2015,08,03,17,13,24.80
2015,08,03,17,14,24.80
2015,08,03,17,15,24.80
2015,08,03,17,16,24.90
2015,08,03,17,17,24.80
2015,08,03,17,18,24.80
2015,08,03,17,19,24.80
2015,08,03,17,20,24.80
2015,08,03,17,21,24.90
2015,08,03,17,22,24.90
2015,08,03,17,23,24.90
2015,08,03,17,24,24.90
2015,08,03,17,25,24.90
2015,08,03,17,26,24.90
2015,08,03,17,27,24.90
2015,08,03,17,28,24.80
2015,08,03,17,29,24.80
2015,08,03,17,30,24.80
2015,08,03,17,31,24.70
2015,08,03,17,32,24.60
2015,08,03,17,33,24.50
2015,08,03,17,34,24.40
2015,08,03,17,35,24.40
2015,08,03,17,36,24.40
2015,08,03,17,37,24.40
2015,08,03,17,38,24.40
2015,08,03,17,39,24.40
2015,08,03,17,40,24.50
2015,08,03,17,41,24.40
2015,08,03,17,42,24.40
2015,08,03,17,43,24.40
2015,08,03,17,44,24.40
2015,08,03,17,45,24.40
2015,08,03,17,46,24.30
2015,08,03,17,47,24.30
2015,08,03,17,48,24.30
2015,08,03,17,49,24.30
2015,08,03,17,50,24.40
2015,08,03,17,51,24.40
2015,08,03,17,52,24.40
2015,08,03,17,53,24.50
2015,08,03,17,54,24.60
2015,08,03,17,55,24.60
2015,08,03,17,56,24.60
2015,08,03,17,57,24.60
2015,08,03,17,58,24.60
2015,08,03,17,59,24.60
2015,08,03,18,00,24.60
2015,08,03,18,01,24.60
2015,08,03,18,02,24.60
2015,08,03,18,03,24.50
2015,08,03,18,04,24.40
2015,08,03,18,05,24.30
2015,08,03,18,06,24.20
2015,08,03,18,07,24.10
2015,08,03,18,08,24.00
2015,08,03,18,09,24.00
2015,08,03,18,10,23.90
2015,08,03,18,11,23.90
2015,08,03,18,12,23.90
2015,08,03,18,13,23.80
2015,08,03,18,14,23.80
2015,08,03,18,15,23.70
2015,08,03,18,16,23.60
2015,08,03,18,17,23.60
2015,08,03,18,18,23.60
2015,08,03,18,19,23.60
2015,08,03,18,20,23.60
2015,08,03,18,21,23.60
2015,08,03,18,22,23.60
2015,08,03,18,23,23.60
2015,08,03,18,24,23.60
2015,08,03,18,25,23.60
2015,08,03,18,26,23.60
2015,08,03,18,27,23.60
2015,08,03,18,28,23.50
2015,08,03,18,29,23.50
2015,08,03,18,30,23.40
2015,08,03,18,31,23.40
2015,08,03,18,32,23.40
2015,08,03,18,33,23.30
2015,08,03,18,34,23.30
2015,08,03,18,35,23.30
2015,08,03,18,36,23.20
2015,08,03,18,37,23.20
2015,08,03,18,38,23.20
2015,08,03,18,39,23.10
2015,08,03,18,40,23.10
2015,08,03,18,41,23.00
2015,08,03,18,42,23.00
2015,08,03,18,43,23.00
2015,08,03,18,44,23.00
2015,08,03,18,45,23.00
2015,08,03,18,46,23.00
2015,08,03,18,47,23.10
2015,08,03,18,48,23.10
2015,08,03,18,49,23.20
2015,08,03,18,50,23.20
2015,08,03,18,51,23.20
2015,08,03,18,52,23.20
2015,08,03,18,53,23.30
2015,08,03,18,54,23.30
2015,08,03,18,55,23.30
2015,08,03,18,56,23.40
2015,08,03,18,57,23.40
2015,08,03,18,58,23.40
2015,08,03,18,59,23.40
2015,08,03,19,00,23.40
2015,08,03,19,01,23.50
2015,08,03,19,02,23.50
2015,08,03,19,03,23.50
2015,08,03,19,04,23.50
2015,08,03,19,05,23.50
2015,08,03,19,06,23.50
2015,08,03,19,07,23.50
2015,08,03,19,08,23.50
2015,08,03,19,09,23.50
2015,08,03,19,10,23.50
2015,08,03,19,11,23.50
2015,08,03,19,12,23.50
2015,08,03,19,13,23.50
2015,08,03,19,14,23.50
2015,08,03,19,15,23.40
2015,08,03,19,16,23.40
2015,08,03,19,17,23.40
2015,08,03,19,18,23.40
2015,08,03,19,19,23.30
2015,08,03,19,20,23.30
2015,08,03,19,21,23.30
2015,08,03,19,22,23.30
2015,08,03,19,23,23.30
2015,08,03,19,24,23.30
2015,08,03,19,25,23.30
2015,08,03,19,26,23.30
2015,08,03,19,27,23.30
2015,08,03,19,28,23.30
2015,08,03,19,29,23.30
2015,08,03,19,30,23.30
2015,08,03,19,31,23.30
2015,08,03,19,32,23.30
2015,08,03,19,33,23.20
2015,08,03,19,34,23.20
2015,08,03,19,35,23.20
2015,08,03,19,36,23.10
2015,08,03,19,37,23.10
2015,08,03,19,38,23.10
2015,08,03,19,39,23.10
2015,08,03,19,40,23.00
2015,08,03,19,41,23.00
2015,08,03,19,42,23.00
2015,08,03,19,43,23.00
2015,08,03,19,44,22.90
2015,08,03,19,45,22.90
2015,08,03,19,46,22.80
2015,08,03,19,47,22.80
2015,08,03,19,48,22.80
2015,08,03,19,49,22.80
2015,08,03,19,50,22.80
2015,08,03,19,51,22.70
2015,08,03,19,52,22.70
2015,08,03,19,53,22.70
2015,08,03,19,54,22.70
2015,08,03,19,55,22.70
2015,08,03,19,56,22.70
2015,08,03,19,57,22.70
2015,08,03,19,58,22.70
2015,08,03,19,59,22.70
2015,08,03,20,00,22.70
2015,08,03,20,01,22.60
2015,08,03,20,02,22.60
2015,08,03,20,03,22.60
2015,08,03,20,04,22.60
2015,08,03,20,05,22.60
2015,08,03,20,06,22.50
2015,08,03,20,07,22.50
2015,08,03,20,08,22.40
2015,08,03,20,09,22.40